Location: Gokavaram
(16.9752°N, 81.0696°E)
Time: 08:23:29
(UTC+00:00)

Cosmos 2341 Rocket - Pass Details

Date: 15 May 2026
Orbit: 968 x 1003 km, 82.9° (Epoch: 6 June)

Event Time Altitude Azimuth Distance (km) Brightness Sun altitude
Rises 23:14:42 0° 346° (NNW) 3,699 7.2 -11.8°
Reaches altitude 10° 23:17:19 10° 340° (NNW) 2,744 6.4 -11.2°
Maximum altitude 23:23:17 47° 269° (W) 1,282 4.3 -9.9°
Drops below altitude 10° 23:29:12 10° 197° (SSW) 2,716 6.0 -8.6°
Sets 23:31:47 0° 191° (S) 3,658 6.7 -8.0°
